Temperature
23 22 22 21 20 20 23 24 24 24 24 24 23 23 22 21 21 20 20 20 20 21 20 20 20 20 20 20 20 20 20 20 20 20 20 20 20 20 20 20 20 20 20 19 19 19 19 19 19
23 23 22 22 20 21 22 23 23 24 24 24 23 23 22 21 20 19 20 20 20 21 20 20 20 20 20 20 20 20 20 20 20 20 20 20 20 20 20 20 20 20 20 19 19 19 19 19 19
24 23 23 20 22 22 23 23 23 24 25 24 23 22 22 21 20 20 20 20 21 21 21 20 20 20 20 20 20 20 20 20 20 20 20 20 20 20 20 20 20 20 19 19 19 19 19 19 19
24 24 23 21 22 23 23 23 24 24 23 23 22 22 21 21 21 21 21 21 21 21 21 21 21 20 20 20 20 20 20 20 20 19 19 19 19 20 20 20 20 20 20 19 19 19 19 19 19
25 24 21 21 22 22 22 23 23 23 23 22 22 21 20 21 21 21 20 21 21 21 21 21 21 21 21 20 20 20 20 20 19 19 19 19 19 19 19 20 20 20 19 19 19 19 19 18 18
25 22 21 21 21 21 21 22 22 22 22 22 21 21 20 20 20 20 20 20 20 20 20 20 20 20 20 20 20 20 20 20 20 19 19 19 19 19 19 19 19 19 19 19 19 19 19 19 18
24 21 21 21 20 20 21 21 21 21 20 20 21 20 20 20 20 20 20 20 20 20 20 20 19 19 20 20 20 20 20 20 19 19 19 19 19 19 19 19 19 19 19 19 19 19 19 19 19
26 21 21 20 20 20 20 21 20 20 19 19 20 19 19 19 19 20 20 19 19 19 19 19 19 19 19 19 19 19 19 19 19 19 19 19 19 19 19 19 19 19 19 19 19 19 19 19 19
26 20 20 20 20 19 20 20 20 19 19 18 18 18 18 18 19 19 19 19 19 19 19 19 19 19 19 19 19 18 19 19 19 19 19 19 19 19 19 19 19 19 19 19 19 19 19 19 19
24 20 21 20 19 19 19 19 19 18 18 18 18 19 19 19 19 19 19 19 19 18 18 18 18 19 19 19 19 19 18 18 19 19 19 19 19 19 19 19 18 18 18 18 19 19 19 19 19
23 21 20 20 20 20 19 18 18 18 17 18 18 19 19 19 19 19 18 18 18 18 18 18 18 18 18 18 18 18 19 19 19 19 19 19 19 19 18 18 18 18 18 18 19 19 19 19 19
22 21 21 21 21 20 19 18 18 18 18 19 19 19 19 19 18 18 18 18 18 17 17 17 17 18 18 18 18 18 18 18 18 18 18 18 18 19 19 18 18 18 18 18 18 19 19 19 19
22 21 20 20 20 19 18 18 18 18 19 19 19 19 18 18 18 18 17 17 17 17 17 17 17 17 17 17 17 17 18 18 18 18 18 18 18 18 18 18 18 18 18 18 18 19 19 19 19
23 21 20 20 20 19 18 18 18 19 19 19 18 18 18 17 17 17 17 17 17 17 17 17 17 17 17 17 17 17 17 17 18 18 18 18 18 18 18 18 18 18 18 18 18 18 18 18 18
23 21 20 20 19 19 18 17 18 19 19 18 18 17 17 17 17 16 16 16 16 16 16 16 16 16 16 16 16 16 17 17 17 17 17 17 18 18 18 18 18 18 18 18 18 18 18 18 18
22 20 20 20 20 19 18 16 18 19 19 18 17 17 17 16 16 16 16 15 15 15 15 15 15 15 15 15 16 16 16 16 16 17 17 17 17 17 17 18 18 18 18 18 18 18 18 18 18
21 20 20 20 20 19 17 16 18 18 18 17 17 17 16 16 16 15 15 15 14 14 14 14 14 14 15 15 15 15 15 16 16 16 16 17 17 17 17 17 18 18 18 18 18 18 18 18 18
22 21 20 20 20 19 17 16 17 18 18 17 17 16 16 16 15 15 15 14 14 14 14 14 14 14 14 14 15 15 15 15 15 16 16 16 16 16 17 17 17 17 17 17 18 18 18 18 18
22 21 20 20 21 18 16 16 16 17 17 16 16 16 16 15 15 15 14 14 14 13 13 13 13 13 14 14 14 14 15 15 15 15 15 15 16 16 16 17 17 17 17 17 17 17 18 18 18
20 20 19 20 21 18 16 16 16 17 16 16 16 16 15 15 15 14 14 14 13 13 13 13 13 13 13 13 13 13 14 14 14 15 15 15 15 16 16 16 16 17 17 17 17 17 17 17 17
20 20 20 20 20 18 16 16 16 16 16 16 16 15 15 15 14 14 14 13 13 13 12 12 12 13 13 13 13 13 14 14 14 14 14 15 15 15 16 16 16 16 16 17 17 17 17 17 17
20 20 21 20 18 17 17 14 15 15 15 15 15 15 15 15 14 14 14 13 13 13 12 12 12 12 12 13 13 13 13 13 13 14 14 14 15 15 15 16 16 16 16 16 17 17 17 17 17
20 21 20 20 18 17 16 15 14 15 15 14 15 15 15 15 14 14 14 13 13 13 13 12 12 12 12 12 13 13 13 13 13 13 14 14 15 15 15 15 16 16 16 16 16 16 17 17 17
21 19 18 16 15 16 17 15 14 13 14 14 15 15 15 15 14 14 14 14 13 13 13 13 12 12 12 12 12 12 12 13 13 13 13 14 14 14 15 15 15 15 16 16 16 16 16 16 16
18 16 15 16 15 15 17 16 14 14 15 15 15 15 15 15 15 14 14 14 14 13 13 13 13 12 12 12 12 12 12 12 13 13 13 13 14 14 14 14 15 15 15 16 16 16 16 16 16
19 16 15 16 16 15 16 16 14 16 16 16 15 15 15 15 15 15 14 14 14 13 13 13 12 12 12 12 12 12 12 12 12 13 13 13 13 13 14 14 14 14 15 15 15 16 16 16 16
19 17 16 15 16 16 15 15 15 16 15 15 15 15 15 15 15 15 15 14 14 14 13 13 12 12 12 12 12 12 12 12 12 12 13 13 13 13 13 14 14 14 14 14 15 15 15 15 15
19 18 14 16 16 16 16 15 14 14 14 14 14 15 15 15 15 15 15 15 14 14 13 13 13 12 12 12 12 12 12 12 12 12 12 12 13 13 13 13 13 13 14 14 14 14 14 15 15
18 18 15 14 14 15 15 15 15 14 14 14 14 15 15 15 15 15 15 15 15 14 14 13 13 12 12 12 11 11 11 11 12 12 12 12 12 12 13 13 13 13 13 13 13 14 14 14 14
19 18 15 15 15 14 13 13 16 15 15 15 15 16 16 16 16 15 15 15 15 14 14 13 13 12 12 12 11 11 11 11 11 11 12 12 12 12 12 12 13 13 13 13 13 13 13 13 14
Wind_Speed
10 7 3 2 3 5 5 4 4 7 6 8 11 11 9 7 4 5 3 12 14 12 13 14 13 13 12 12 11 11 10 10 9 9 8 7 7 6 5 5 5 5 5 5 5 6 6 6 5
6 5 2 2 6 6 4 5 9 7 6 7 11 10 8 7 7 7 6 11 15 14 14 13 13 12 12 11 11 10 9 9 8 8 8 7 7 6 5 4 4 4 4 4 4 5 5 5 4
5 3 1 3 4 4 3 4 9 9 9 7 6 7 6 4 5 5 9 14 13 13 14 14 14 13 12 11 10 10 9 9 8 8 7 7 7 6 6 5 5 4 4 4 4 4 4 4 3
4 3 4 6 8 5 4 3 7 8 9 9 7 6 5 4 3 8 14 14 13 12 14 15 15 14 13 12 11 10 10 9 9 8 7 7 7 6 6 6 5 5 4 4 4 4 4 4 3
3 4 6 5 6 6 7 7 10 13 7 10 10 7 5 6 8 12 12 13 13 11 13 15 16 15 14 13 12 11 10 10 9 9 8 8 7 7 6 6 6 5 5 4 4 5 5 5 4
4 5 5 3 4 5 5 7 11 13 10 8 7 6 5 7 7 7 9 9 9 10 11 13 16 15 15 14 13 12 12 11 11 10 10 9 9 8 7 7 7 6 6 5 5 5 6 6 5
5 4 3 2 3 5 4 5 7 7 9 8 5 4 3 8 7 7 8 7 6 5 5 6 10 12 14 14 14 14 14 13 12 12 11 11 10 9 9 8 8 8 7 7 6 6 6 7 6
6 6 4 2 3 2 4 4 6 9 6 6 6 6 4 5 6 9 11 10 8 7 5 3 1 5 8 12 14 15 15 15 14 14 13 13 12 11 11 10 10 10 9 9 8 8 8 8 8
5 5 4 4 4 2 2 2 5 7 9 9 7 5 2 3 6 10 10 9 8 7 6 5 4 4 4 7 11 14 15 16 16 15 15 15 13 12 12 12 12 12 12 11 10 10 9 9 9
5 5 5 4 6 6 3 4 5 5 8 7 6 6 5 6 9 11 9 8 6 5 4 4 4 4 4 4 5 8 12 13 15 14 15 14 13 13 13 14 16 15 15 13 12 11 11 10 8
6 6 5 4 6 6 5 5 5 5 6 4 3 4 5 8 9 9 7 6 5 4 5 4 3 5 4 3 3 4 6 8 11 13 14 14 12 12 12 10 12 15 15 13 12 11 10 9 8
7 5 5 5 6 4 5 5 5 5 2 1 0 2 5 8 8 8 7 6 5 5 6 5 4 4 4 4 4 3 3 4 5 8 12 10 7 7 8 7 9 10 11 10 9 8 9 10 11
7 7 8 13 15 11 12 8 6 2 1 1 3 6 7 8 8 8 8 8 7 7 7 6 6 4 4 3 3 3 3 4 6 6 8 10 6 6 6 6 8 9 10 8 7 7 7 7 9
8 12 12 11 11 7 11 6 4 2 2 4 6 7 7 8 8 9 9 9 8 8 9 8 7 5 5 3 4 3 4 6 6 7 8 9 8 6 5 5 5 7 10 10 8 7 6 6 6
11 10 7 4 6 6 9 8 3 2 5 7 7 8 9 9 9 8 7 7 8 8 9 10 9 7 7 6 5 4 5 6 5 6 9 9 8 7 5 6 6 7 11 11 8 7 5 6 7
5 6 3 3 5 6 7 4 2 1 7 7 7 7 8 7 7 7 8 8 8 8 9 10 11 10 9 8 6 5 5 5 5 7 9 10 10 8 6 6 6 7 8 7 7 6 5 6 6
3 1 3 2 4 5 6 5 3 2 8 7 6 7 7 7 8 8 8 8 9 8 9 9 9 9 9 8 6 5 5 5 6 7 7 9 10 9 6 5 6 7 5 6 7 6 5 4 4
1 3 2 4 3 6 6 6 4 3 8 6 6 6 7 7 7 6 8 8 8 8 8 8 9 9 9 7 6 5 5 5 5 5 6 9 9 9 6 5 6 6 5 5 5 5 5 4 4
2 3 3 3 5 5 8 7 5 3 6 6 5 5 6 5 5 6 7 8 8 9 9 9 9 9 8 6 5 5 5 6 5 5 6 7 8 8 6 5 5 6 6 7 7 5 5 4 3
8 7 4 2 3 5 7 4 3 3 4 5 5 5 4 5 6 7 7 8 8 8 9 9 9 9 8 6 5 4 5 5 5 4 5 6 7 7 6 6 6 6 6 7 7 6 5 4 4
6 5 3 2 1 5 7 2 2 1 3 4 4 4 4 4 4 6 6 7 7 8 9 9 9 9 9 8 6 5 4 4 4 5 4 5 6 6 5 6 6 7 7 7 8 8 8 6 5
1 1 1 2 3 3 6 4 6 4 2 2 2 3 2 3 3 4 6 7 7 7 8 8 8 8 9 8 7 6 5 5 5 5 5 6 6 5 5 5 6 7 7 8 9 9 7 7 6
3 2 1 0 1 1 1 4 5 4 3 2 2 2 0 1 2 4 6 6 7 7 7 7 8 8 8 8 8 7 6 5 5 5 6 6 6 5 5 5 6 6 7 8 9 8 8 7 7
1 5 6 5 5 2 5 5 6 5 6 4 3 2 1 1 3 4 6 6 6 6 7 7 8 8 8 8 8 7 8 8 8 7 7 6 5 5 5 4 4 5 5 7 8 9 10 9 9
6 6 5 5 4 5 2 3 6 5 6 7 6 4 2 1 3 5 7 7 7 7 7 7 7 7 8 8 8 8 8 7 7 7 6 6 5 4 6 5 3 3 3 4 5 7 8 9 9
0 6 6 3 4 5 3 1 5 4 5 7 6 4 2 1 3 5 7 6 6 7 6 6 6 7 8 8 8 8 8 6 5 6 6 6 4 4 6 6 5 5 3 2 2 4 5 6 8
2 2 5 6 1 2 3 3 4 2 4 5 5 4 2 3 4 5 6 6 6 6 5 5 5 6 7 8 7 7 8 7 8 8 6 6 6 6 7 7 7 7 6 4 2 0 2 3 4
1 3 5 3 1 3 4 4 5 8 8 7 6 6 5 4 5 6 6 6 5 4 4 3 3 4 5 7 7 6 7 7 8 7 9 8 9 8 9 9 9 9 8 7 4 2 1 1 1
2 2 4 3 4 3 4 7 5 9 9 9 8 7 7 6 6 7 7 6 5 4 3 2 3 4 5 6 6 6 7 7 8 8 8 8 8 8 9 9 9 9 9 8 7 5 3 2 2
3 4 5 3 1 3 3 7 3 8 8 9 9 8 7 7 6 7 7 6 4 4 3 3 2 2 3 4 5 6 6 7 7 8 8 8 8 8 8 8 8 9 9 9 8 6 5 3 2
Wind_Direction
179 163 134 145 60 53 53 18 63 71 63 60 70 80 80 55 90 135 141 142 138 147 154 151 147 142 139 138 139 141 142 143 144 143 141 137 132 126 117 109 104 105 108 108 113 119 119 114 102
151 145 161 72 79 72 32 43 64 73 123 105 74 73 74 71 79 100 118 141 142 147 151 153 151 146 144 143 143 144 146 149 151 152 152 151 148 146 142 135 127 124 125 128 131 139 137 132 122
145 164 124 65 75 101 93 71 86 67 58 65 69 49 56 74 93 124 153 147 145 149 155 157 156 153 151 151 151 153 156 158 161 163 164 165 164 163 160 156 150 147 147 150 150 153 156 154 149
131 82 43 65 67 42 74 84 93 74 49 45 78 57 41 43 86 141 150 151 149 154 159 162 163 162 162 162 162 165 168 170 173 176 178 179 179 178 174 170 168 166 166 169 171 172 173 175 179
87 71 54 58 61 36 43 57 78 76 71 63 75 83 47 24 97 132 149 154 153 157 164 169 171 172 172 173 175 177 180 183 185 186 188 190 191 189 186 183 181 179 181 184 187 193 193 195 203
63 64 70 61 60 49 24 33 76 85 89 71 67 81 59 32 74 121 139 148 152 158 167 178 180 181 183 184 186 189 192 194 196 197 197 199 200 199 199 197 194 191 193 197 199 206 207 208 215
106 89 84 93 69 44 30 23 42 67 59 24 12 75 52 21 32 78 90 90 95 122 145 179 193 195 198 199 200 201 202 203 205 206 205 206 207 207 208 207 205 203 202 205 209 214 217 219 225
124 108 92 77 87 52 347 11 45 42 53 21 25 59 35 354 15 61 67 64 61 55 48 38 223 223 223 220 216 215 213 211 211 211 211 212 215 215 216 215 215 213 211 212 214 218 223 226 231
93 87 139 172 155 151 357 65 60 48 66 58 53 68 63 12 46 60 58 52 46 43 35 30 19 352 310 259 238 232 230 225 220 217 216 216 217 220 222 221 220 220 219 218 218 221 225 229 235
79 114 182 178 154 136 75 55 83 62 53 46 44 45 52 46 50 55 53 46 36 27 21 24 11 359 344 312 272 247 240 235 228 221 220 217 214 217 223 226 227 225 223 222 223 225 228 232 237
78 129 148 148 149 140 107 57 42 102 54 30 39 27 31 44 47 50 46 41 31 14 10 11 357 349 346 329 319 280 253 248 240 230 224 218 214 215 223 225 232 230 225 222 226 229 230 232 234
88 71 121 136 149 105 88 100 64 60 130 239 73 54 46 48 46 44 38 31 19 13 358 349 344 337 331 328 315 297 279 269 255 245 235 223 219 216 215 219 223 218 215 214 219 223 230 235 239
106 113 92 97 94 93 95 91 98 53 298 12 51 49 55 56 48 39 37 29 18 9 355 341 331 327 322 318 306 303 288 278 270 261 245 225 220 221 218 215 217 211 207 208 216 222 226 233 240
125 118 119 114 108 101 96 77 70 355 9 58 63 57 54 54 46 37 28 21 12 3 353 344 334 330 319 304 288 279 275 275 272 260 252 237 226 224 219 214 210 211 208 211 217 222 222 229 231
113 110 105 117 117 133 104 59 29 343 71 65 61 61 59 54 51 41 29 21 10 360 355 350 342 343 329 312 291 288 278 275 268 263 262 255 239 230 220 218 217 215 209 208 215 230 231 237 236
87 101 142 187 152 153 106 113 261 38 89 72 65 63 60 48 41 32 27 20 9 2 354 347 352 345 336 327 306 292 286 279 271 268 264 258 251 239 223 218 223 217 205 200 204 211 226 240 240
64 164 216 198 169 135 113 145 216 109 98 86 73 63 53 36 25 20 19 14 4 357 351 348 348 344 335 327 316 304 298 284 280 275 267 262 255 248 232 225 222 213 203 203 207 195 199 225 242
251 252 216 186 150 112 114 148 180 129 106 97 77 58 44 31 15 10 12 4 356 351 347 345 343 341 335 329 324 317 314 305 292 281 270 264 259 250 237 234 229 213 203 202 199 184 192 204 221
106 83 106 146 142 118 137 154 176 134 106 98 80 60 43 23 4 10 4 356 353 350 348 344 343 338 338 333 327 318 312 305 302 291 283 274 264 254 238 241 233 219 213 206 195 181 189 202 199
70 77 73 46 122 116 136 150 177 163 144 136 114 80 52 25 8 359 355 352 348 342 343 343 342 337 335 326 306 282 283 284 283 290 299 291 276 263 253 239 234 223 218 211 195 184 181 198 185
66 100 146 202 20 93 111 86 199 196 121 110 98 87 60 42 10 348 345 342 340 340 340 343 338 338 336 333 326 323 317 312 322 318 309 300 293 274 256 248 239 228 216 215 205 194 184 193 195
147 210 146 136 114 228 161 193 232 204 161 118 97 81 57 19 3 342 336 332 331 328 331 333 335 337 337 339 345 342 338 324 307 306 301 303 298 287 269 254 242 232 222 218 214 205 195 185 193
221 259 310 57 136 314 195 156 251 184 197 208 175 150 122 355 359 337 325 317 316 320 327 330 333 336 339 345 347 344 338 321 311 316 319 321 315 304 292 269 251 237 226 222 217 209 202 195 195
11 22 24 49 68 322 237 170 239 213 202 185 188 194 212 337 336 320 315 317 312 317 328 334 337 333 336 342 346 349 344 339 339 340 337 332 324 319 320 303 274 252 235 226 219 213 208 205 203
60 64 30 10 7 264 261 150 240 221 185 170 175 194 214 273 317 313 311 314 315 320 325 334 339 334 335 340 343 340 339 341 340 335 334 337 334 327 331 337 322 294 260 237 220 214 214 208 205
60 132 140 189 244 286 353 261 259 215 170 160 168 175 183 261 293 301 299 302 307 313 318 328 336 334 338 342 338 339 342 343 342 338 337 338 329 322 338 350 355 350 346 319 234 216 217 211 209
70 121 173 152 275 301 295 301 301 205 170 174 181 174 186 253 280 289 298 302 302 306 307 313 327 333 340 345 342 344 349 352 351 351 355 354 351 3 14 13 16 12 11 8 8 100 209 202 203
186 148 74 85 14 311 295 250 238 212 206 200 195 196 212 249 277 291 295 293 289 288 295 318 326 330 337 348 350 353 353 356 356 2 8 11 13 19 24 28 26 22 17 11 14 25 41 101 169
27 58 85 116 153 167 284 271 229 197 192 192 202 207 215 239 263 278 285 284 284 288 294 303 323 340 345 351 353 359 359 2 9 13 12 14 18 24 28 26 26 24 19 12 16 16 33 70 84
154 151 133 135 265 178 208 270 262 178 180 182 198 211 223 240 260 269 277 284 288 288 283 279 303 332 334 351 7 4 2 6 13 13 12 18 22 20 24 24 25 22 18 12 14 12 16 35 56
Height
1538 1538 1538 1540 1542 1548 1549 1542 1536 1534 1534 1534 1532 1533 1537 1541 1545 1552 1549 1549 1551 1552 1554 1555 1556 1557 1558 1558 1559 1559 1559 1559 1559 1560 1560 1560 1560 1560 1560 1560 1560 1560 1559 1560 1560 1560 1560 1561 1561
1538 1538 1540 1540 1548 1560 1555 1543 1540 1536 1537 1535 1535 1537 1539 1543 1545 1547 1548 1551 1552 1553 1554 1555 1556 1557 1558 1558 1558 1559 1559 1559 1559 1559 1559 1559 1560 1560 1560 1560 1559 1559 1559 1559 1559 1559 1560 1560 1561
1539 1539 1541 1542 1550 1557 1554 1544 1540 1538 1538 1536 1538 1540 1543 1546 1548 1548 1550 1552 1553 1554 1555 1556 1557 1557 1558 1558 1558 1558 1558 1558 1558 1558 1559 1559 1559 1559 1559 1559 1559 1559 1559 1559 1559 1559 1559 1560 1560
1540 1541 1542 1547 1553 1550 1548 1545 1540 1539 1540 1540 1540 1545 1547 1549 1549 1550 1551 1553 1554 1555 1556 1556 1557 1557 1558 1558 1558 1558 1558 1558 1558 1558 1558 1558 1558 1558 1558 1558 1558 1558 1558 1558 1558 1558 1559 1559 1560
1539 1541 1548 1556 1555 1551 1547 1545 1541 1542 1544 1546 1544 1549 1551 1552 1551 1552 1553 1554 1554 1555 1556 1556 1557 1557 1557 1558 1558 1558 1557 1557 1557 1557 1557 1557 1557 1558 1558 1557 1557 1557 1557 1557 1557 1558 1558 1558 1559
1540 1543 1558 1564 1558 1553 1551 1548 1545 1547 1549 1550 1550 1551 1555 1556 1554 1554 1554 1555 1555 1556 1556 1557 1557 1557 1557 1557 1557 1557 1557 1556 1556 1556 1556 1556 1557 1557 1557 1557 1556 1556 1556 1556 1556 1557 1557 1558 1558
1541 1548 1559 1562 1562 1559 1555 1553 1551 1551 1551 1552 1552 1553 1557 1557 1556 1555 1555 1555 1556 1556 1556 1557 1557 1557 1557 1556 1556 1556 1556 1555 1555 1555 1555 1555 1556 1556 1556 1556 1556 1555 1555 1555 1555 1556 1556 1557 1557
1539 1547 1558 1561 1562 1562 1557 1555 1556 1554 1555 1555 1554 1556 1559 1559 1558 1556 1555 1555 1555 1555 1556 1556 1556 1555 1555 1555 1555 1555 1554 1554 1554 1554 1554 1554 1554 1554 1555 1555 1555 1554 1554 1554 1554 1555 1555 1556 1556
1539 1551 1561 1560 1561 1560 1557 1557 1559 1560 1558 1558 1559 1560 1561 1560 1558 1557 1556 1556 1555 1555 1555 1555 1554 1554 1553 1552 1553 1553 1552 1552 1552 1552 1552 1552 1552 1552 1553 1553 1553 1553 1553 1553 1553 1553 1554 1554 1555
1539 1554 1555 1553 1554 1557 1559 1559 1560 1562 1561 1562 1562 1562 1562 1560 1558 1557 1557 1556 1556 1555 1554 1554 1553 1552 1551 1550 1550 1549 1549 1549 1549 1549 1549 1549 1549 1550 1550 1551 1551 1551 1551 1552 1552 1552 1553 1553 1554
1541 1550 1551 1553 1554 1557 1559 1561 1561 1563 1564 1564 1564 1563 1562 1561 1559 1558 1558 1557 1557 1556 1554 1553 1551 1550 1549 1548 1547 1546 1546 1546 1546 1546 1546 1546 1546 1547 1547 1548 1548 1549 1549 1549 1550 1550 1551 1552 1553
1544 1549 1550 1553 1556 1558 1560 1562 1564 1564 1566 1566 1565 1564 1563 1562 1561 1560 1559 1558 1557 1555 1554 1552 1550 1549 1547 1545 1544 1543 1543 1543 1542 1542 1543 1543 1543 1543 1544 1544 1545 1546 1546 1547 1548 1548 1550 1551 1552
1545 1552 1553 1555 1557 1559 1561 1563 1565 1566 1567 1566 1566 1565 1564 1563 1562 1561 1560 1558 1556 1554 1552 1551 1549 1547 1545 1543 1542 1540 1540 1539 1539 1539 1539 1539 1539 1540 1540 1540 1542 1542 1543 1544 1545 1546 1548 1549 1550
1545 1550 1555 1557 1557 1561 1562 1565 1566 1568 1568 1567 1567 1566 1565 1564 1563 1561 1559 1557 1555 1553 1550 1548 1546 1544 1542 1540 1538 1537 1536 1535 1535 1535 1535 1535 1535 1536 1536 1537 1538 1538 1540 1541 1542 1544 1546 1547 1548
1546 1552 1557 1558 1558 1562 1562 1569 1569 1569 1568 1568 1568 1567 1566 1564 1563 1561 1559 1556 1554 1551 1548 1545 1543 1540 1538 1536 1534 1533 1532 1531 1531 1530 1530 1531 1531 1532 1532 1533 1533 1535 1536 1537 1539 1541 1543 1544 1546
1548 1555 1561 1558 1558 1561 1565 1575 1570 1568 1568 1568 1568 1567 1566 1564 1563 1561 1558 1555 1552 1549 1546 1542 1539 1536 1534 1532 1530 1529 1528 1527 1526 1526 1525 1526 1526 1527 1527 1528 1529 1531 1532 1533 1534 1536 1538 1540 1542
1554 1561 1561 1559 1557 1559 1564 1573 1569 1568 1567 1567 1567 1566 1565 1564 1562 1560 1557 1554 1551 1547 1543 1539 1536 1532 1530 1527 1526 1524 1523 1522 1521 1521 1521 1521 1521 1522 1522 1524 1525 1526 1527 1528 1530 1532 1534 1536 1538
1560 1559 1560 1561 1557 1559 1566 1570 1568 1568 1567 1567 1566 1566 1565 1563 1562 1559 1556 1553 1549 1545 1541 1536 1533 1529 1526 1523 1521 1520 1519 1518 1517 1516 1516 1516 1516 1516 1517 1518 1520 1522 1523 1524 1525 1527 1530 1532 1534
1551 1556 1560 1558 1555 1560 1567 1570 1569 1568 1567 1567 1566 1566 1565 1564 1562 1559 1556 1552 1548 1543 1538 1534 1530 1526 1523 1520 1517 1515 1514 1513 1512 1512 1511 1511 1511 1511 1512 1513 1515 1516 1518 1519 1520 1523 1525 1527 1530
1552 1559 1562 1558 1554 1560 1569 1571 1569 1568 1568 1567 1566 1565 1565 1563 1561 1558 1555 1551 1546 1542 1537 1533 1529 1525 1521 1518 1515 1512 1510 1508 1508 1507 1506 1506 1506 1506 1507 1508 1509 1511 1513 1514 1516 1518 1519 1521 1524
1558 1560 1561 1561 1559 1562 1570 1576 1573 1570 1569 1568 1567 1566 1564 1563 1561 1558 1554 1550 1546 1542 1537 1533 1528 1524 1521 1517 1514 1510 1508 1506 1504 1503 1502 1502 1502 1502 1502 1502 1504 1505 1507 1509 1510 1512 1514 1516 1519
1561 1555 1556 1558 1567 1573 1570 1586 1576 1571 1570 1568 1567 1566 1564 1562 1560 1557 1554 1550 1546 1542 1538 1533 1529 1525 1521 1517 1513 1509 1506 1503 1501 1500 1498 1498 1497 1497 1497 1497 1498 1499 1501 1502 1504 1507 1509 1511 1513
1556 1553 1555 1558 1564 1571 1570 1580 1579 1571 1571 1569 1567 1565 1564 1562 1560 1557 1554 1550 1546 1542 1538 1534 1530 1525 1521 1517 1513 1509 1506 1503 1500 1498 1496 1495 1494 1493 1493 1493 1493 1494 1495 1496 1498 1500 1503 1505 1507
1552 1556 1559 1565 1572 1581 1570 1577 1578 1573 1568 1567 1566 1565 1563 1561 1559 1557 1554 1550 1547 1543 1539 1535 1530 1526 1522 1518 1514 1510 1507 1503 1500 1497 1495 1493 1491 1490 1490 1489 1489 1489 1490 1491 1492 1494 1497 1499 1501
1557 1571 1583 1583 1590 1584 1567 1571 1573 1564 1562 1563 1564 1563 1562 1561 1559 1556 1553 1550 1546 1543 1539 1535 1531 1527 1523 1519 1516 1512 1508 1504 1501 1498 1495 1492 1490 1489 1487 1486 1485 1485 1485 1486 1487 1489 1490 1493 1495
1559 1569 1586 1591 1591 1583 1569 1573 1570 1561 1561 1561 1562 1562 1561 1560 1558 1555 1553 1550 1546 1543 1539 1536 1532 1528 1525 1521 1517 1514 1510 1506 1502 1499 1496 1493 1491 1489 1486 1484 1483 1482 1482 1482 1482 1483 1485 1487 1489
1560 1566 1568 1580 1579 1583 1578 1573 1566 1562 1562 1562 1562 1561 1560 1559 1557 1555 1552 1549 1546 1543 1539 1536 1533 1529 1526 1522 1519 1515 1512 1508 1504 1501 1498 1494 1491 1489 1487 1485 1483 1481 1480 1480 1480 1480 1481 1482 1484
1557 1561 1572 1577 1583 1589 1578 1575 1574 1564 1562 1561 1560 1560 1559 1558 1556 1554 1551 1548 1546 1543 1540 1536 1533 1530 1527 1523 1520 1516 1513 1510 1506 1503 1499 1496 1493 1491 1488 1486 1484 1482 1481 1479 1479 1478 1478 1479 1480
1561 1562 1569 1579 1582 1590 1590 1579 1557 1557 1557 1558 1558 1558 1557 1556 1554 1553 1550 1548 1545 1543 1540 1537 1533 1530 1527 1524 1521 1517 1514 1511 1508 1505 1501 1499 1496 1493 1490 1487 1485 1483 1482 1480 1479 1478 1478 1478 1478
1558 1561 1569 1579 1580 1583 1589 1580 1552 1552 1553 1555 1556 1556 1555 1554 1553 1551 1549 1547 1545 1542 1539 1537 1534 1531 1528 1525 1521 1518 1515 1512 1509 1506 1503 1500 1497 1494 1491 1489 1487 1484 1482 1481 1479 1479 1478 1477 1477